iso_date,epoch_date,Year,Hour,Min,DOY,POS_DOY,Lat,Lon,BP,Ts,Ta,has_bp,has_ts,has_ta,BuoyID,Buoy_Type,Buoy_Owner,Logistics,Hemisphere
2021-05-03T00:00:00Z,1620000000,2021,0,0,123.0,123.0,60.026,1.809,-999.00,8.04,-999.0,no,yes,no,300234068541410,SVPVHI,AOML,BJARNI_SAEMUN,North
2021-05-03T03:00:00Z,1620010800,2021,3,0,123.125,123.125,60.021,1.817,-999.00,8.02,-999.0,no,yes,no,300234068541410,SVPVHI,AOML,BJARNI_SAEMUN,North
2021-05-03T06:00:00Z,1620021600,2021,6,0,123.25,123.25,60.013,1.815,-999.00,7.98,-999.0,no,yes,no,300234068541410,SVPVHI,AOML,BJARNI_SAEMUN,North
2021-05-03T09:00:00Z,1620032400,2021,9,0,123.375,123.375,60.019,1.817,-999.00,8.23,-999.0,no,yes,no,300234068541410,SVPVHI,AOML,BJARNI_SAEMUN,North
2021-05-03T12:00:00Z,1620043200,2021,12,0,123.5,123.5,60.046,1.813,-999.00,8.12,-999.0,no,yes,no,300234068541410,SVPVHI,AOML,BJARNI_SAEMUN,North
2021-05-03T15:00:00Z,1620054000,2021,15,0,123.625,123.625,60.063,1.825,-999.00,8.29,-999.0,no,yes,no,300234068541410,SVPVHI,AOML,BJARNI_SAEMUN,North
2021-05-03T18:00:00Z,1620064800,2021,18,0,123.75,123.75,60.064,1.823,-999.00,8.3,-999.0,no,yes,no,300234068541410,SVPVHI,AOML,BJARNI_SAEMUN,North
2021-05-03T21:00:00Z,1620075600,2021,21,0,123.875,123.875,60.064,1.79,-999.00,8.22,-999.0,no,yes,no,300234068541410,SVPVHI,AOML,BJARNI_SAEMUN,North
2021-05-04T00:00:00Z,1620086400,2021,0,0,124.0,124.0,60.073,1.747,-999.00,8.04,-999.0,no,yes,no,300234068541410,SVPVHI,AOML,BJARNI_SAEMUN,North
2021-05-04T03:00:00Z,1620097200,2021,3,0,124.125,124.125,60.066,1.705,-999.00,8.04,-999.0,no,yes,no,300234068541410,SVPVHI,AOML,BJARNI_SAEMUN,North
2021-05-04T06:00:00Z,1620108000,2021,6,0,124.25,124.25,60.043,1.66,-999.00,8.08,-999.0,no,yes,no,300234068541410,SVPVHI,AOML,BJARNI_SAEMUN,North
2021-05-04T09:00:00Z,1620118800,2021,9,0,124.375,124.375,60.018,1.616,-999.00,7.96,-999.0,no,yes,no,300234068541410,SVPVHI,AOML,BJARNI_SAEMUN,North
2021-05-04T12:00:00Z,1620129600,2021,12,0,124.5,124.5,60.011,1.573,-999.00,7.97,-999.0,no,yes,no,300234068541410,SVPVHI,AOML,BJARNI_SAEMUN,North
2021-05-04T15:00:00Z,1620140400,2021,15,0,124.625,124.625,60.004,1.551,-999.00,7.95,-999.0,no,yes,no,300234068541410,SVPVHI,AOML,BJARNI_SAEMUN,North
2021-05-04T18:00:00Z,1620151200,2021,18,0,124.75,124.75,59.974,1.525,-999.00,7.97,-999.0,no,yes,no,300234068541410,SVPVHI,AOML,BJARNI_SAEMUN,North
2021-05-04T21:00:00Z,1620162000,2021,21,0,124.875,124.875,59.933,1.479,-999.00,8.08,-999.0,no,yes,no,300234068541410,SVPVHI,AOML,BJARNI_SAEMUN,North
2021-05-05T00:00:00Z,1620172800,2021,0,0,125.0,125.0,59.907,1.428,-999.00,8.01,-999.0,no,yes,no,300234068541410,SVPVHI,AOML,BJARNI_SAEMUN,North
2021-05-05T03:00:00Z,1620183600,2021,3,0,125.125,125.125,59.887,1.396,-999.00,8.0,-999.0,no,yes,no,300234068541410,SVPVHI,AOML,BJARNI_SAEMUN,North
2021-05-05T06:00:00Z,1620194400,2021,6,0,125.25,125.25,59.859,1.386,-999.00,8.03,-999.0,no,yes,no,300234068541410,SVPVHI,AOML,BJARNI_SAEMUN,North
2021-05-05T09:00:00Z,1620205200,2021,9,0,125.375,125.375,59.825,1.372,-999.00,7.98,-999.0,no,yes,no,300234068541410,SVPVHI,AOML,BJARNI_SAEMUN,North
2021-05-05T12:00:00Z,1620216000,2021,12,0,125.5,125.5,59.81,1.349,-999.00,8.0,-999.0,no,yes,no,300234068541410,SVPVHI,AOML,BJARNI_SAEMUN,North
2021-05-05T15:00:00Z,1620226800,2021,15,0,125.625,125.625,59.812,1.35,-999.00,8.05,-999.0,no,yes,no,300234068541410,SVPVHI,AOML,BJARNI_SAEMUN,North
2021-05-05T18:00:00Z,1620237600,2021,18,0,125.75,125.75,59.807,1.371,-999.00,8.06,-999.0,no,yes,no,300234068541410,SVPVHI,AOML,BJARNI_SAEMUN,North
2021-05-05T21:00:00Z,1620248400,2021,21,0,125.875,125.875,59.787,1.383,-999.00,8.02,-999.0,no,yes,no,300234068541410,SVPVHI,AOML,BJARNI_SAEMUN,North
2021-05-06T00:00:00Z,1620259200,2021,0,0,126.0,126.0,59.775,1.38,-999.00,8.02,-999.0,no,yes,no,300234068541410,SVPVHI,AOML,BJARNI_SAEMUN,North
2021-05-06T03:00:00Z,1620270000,2021,3,0,126.125,126.125,59.777,1.379,-999.00,7.98,-999.0,no,yes,no,300234068541410,SVPVHI,AOML,BJARNI_SAEMUN,North
2021-05-06T06:00:00Z,1620280800,2021,6,0,126.25,126.25,59.774,1.388,-999.00,7.96,-999.0,no,yes,no,300234068541410,SVPVHI,AOML,BJARNI_SAEMUN,North
2021-05-06T09:00:00Z,1620291600,2021,9,0,126.375,126.375,59.759,1.401,-999.00,8.02,-999.0,no,yes,no,300234068541410,SVPVHI,AOML,BJARNI_SAEMUN,North
2021-05-06T12:00:00Z,1620302400,2021,12,0,126.5,126.5,59.748,1.401,-999.00,8.12,-999.0,no,yes,no,300234068541410,SVPVHI,AOML,BJARNI_SAEMUN,North
2021-05-06T15:00:00Z,1620313200,2021,15,0,126.625,126.625,59.748,1.393,-999.00,8.18,-999.0,no,yes,no,300234068541410,SVPVHI,AOML,BJARNI_SAEMUN,North
2021-05-06T18:00:00Z,1620324000,2021,18,0,126.75,126.75,59.743,1.388,-999.00,8.15,-999.0,no,yes,no,300234068541410,SVPVHI,AOML,BJARNI_SAEMUN,North
2021-05-06T21:00:00Z,1620334800,2021,21,0,126.875,126.875,59.722,1.381,-999.00,8.07,-999.0,no,yes,no,300234068541410,SVPVHI,AOML,BJARNI_SAEMUN,North
2021-05-07T00:00:00Z,1620345600,2021,0,0,127.0,127.0,59.702,1.352,-999.00,8.0,-999.0,no,yes,no,300234068541410,SVPVHI,AOML,BJARNI_SAEMUN,North
2021-05-07T03:00:00Z,1620356400,2021,3,0,127.125,127.125,59.697,1.326,-999.00,7.9,-999.0,no,yes,no,300234068541410,SVPVHI,AOML,BJARNI_SAEMUN,North
2021-05-07T06:00:00Z,1620367200,2021,6,0,127.25,127.25,59.691,1.317,-999.00,7.87,-999.0,no,yes,no,300234068541410,SVPVHI,AOML,BJARNI_SAEMUN,North
2021-05-07T09:00:00Z,1620378000,2021,9,0,127.375,127.375,59.669,1.309,-999.00,7.92,-999.0,no,yes,no,300234068541410,SVPVHI,AOML,BJARNI_SAEMUN,North
2021-05-07T12:00:00Z,1620388800,2021,12,0,127.5,127.5,59.65,1.283,-999.00,7.96,-999.0,no,yes,no,300234068541410,SVPVHI,AOML,BJARNI_SAEMUN,North
2021-05-07T15:00:00Z,1620399600,2021,15,0,127.625,127.625,59.654,1.269,-999.00,8.01,-999.0,no,yes,no,300234068541410,SVPVHI,AOML,BJARNI_SAEMUN,North
2021-05-07T18:00:00Z,1620410400,2021,18,0,127.75,127.75,59.662,1.281,-999.00,7.94,-999.0,no,yes,no,300234068541410,SVPVHI,AOML,BJARNI_SAEMUN,North
2021-05-07T21:00:00Z,1620421200,2021,21,0,127.875,127.875,59.65,1.304,-999.00,7.89,-999.0,no,yes,no,300234068541410,SVPVHI,AOML,BJARNI_SAEMUN,North
2021-05-08T00:00:00Z,1620432000,2021,0,0,128.0,128.0,59.631,1.305,-999.00,7.78,-999.0,no,yes,no,300234068541410,SVPVHI,AOML,BJARNI_SAEMUN,North
2021-05-08T03:00:00Z,1620442800,2021,3,0,128.125,128.125,59.642,1.305,-999.00,7.82,-999.0,no,yes,no,300234068541410,SVPVHI,AOML,BJARNI_SAEMUN,North
2021-05-08T06:00:00Z,1620453600,2021,6,0,128.25,128.25,59.66,1.33,-999.00,7.84,-999.0,no,yes,no,300234068541410,SVPVHI,AOML,BJARNI_SAEMUN,North
2021-05-08T09:00:00Z,1620464400,2021,9,0,128.375,128.375,59.658,1.363,-999.00,8.01,-999.0,no,yes,no,300234068541410,SVPVHI,AOML,BJARNI_SAEMUN,North
2021-05-08T12:00:00Z,1620475200,2021,12,0,128.5,128.5,59.65,1.364,-999.00,8.2,-999.0,no,yes,no,300234068541410,SVPVHI,AOML,BJARNI_SAEMUN,North
2021-05-08T15:00:00Z,1620486000,2021,15,0,128.625,128.625,59.667,1.335,-999.00,8.21,-999.0,no,yes,no,300234068541410,SVPVHI,AOML,BJARNI_SAEMUN,North
2021-05-08T18:00:00Z,1620496800,2021,18,0,128.75,128.75,59.702,1.32,-999.00,8.16,-999.0,no,yes,no,300234068541410,SVPVHI,AOML,BJARNI_SAEMUN,North
2021-05-08T21:00:00Z,1620507600,2021,21,0,128.875,128.875,59.717,1.313,-999.00,8.09,-999.0,no,yes,no,300234068541410,SVPVHI,AOML,BJARNI_SAEMUN,North
2021-05-09T00:00:00Z,1620518400,2021,0,0,129.0,129.0,59.718,1.275,-999.00,8.04,-999.0,no,yes,no,300234068541410,SVPVHI,AOML,BJARNI_SAEMUN,North
2021-05-09T03:00:00Z,1620529200,2021,3,0,129.125,129.125,59.731,1.2,-999.00,7.93,-999.0,no,yes,no,300234068541410,SVPVHI,AOML,BJARNI_SAEMUN,North
2021-05-09T06:00:00Z,1620540000,2021,6,0,129.25,129.25,59.75,1.127,-999.00,7.88,-999.0,no,yes,no,300234068541410,SVPVHI,AOML,BJARNI_SAEMUN,North
2021-05-09T09:00:00Z,1620550800,2021,9,0,129.375,129.375,59.746,1.082,-999.00,7.71,-999.0,no,yes,no,300234068541410,SVPVHI,AOML,BJARNI_SAEMUN,North
2021-05-09T12:00:00Z,1620561600,2021,12,0,129.5,129.5,59.745,1.084,-999.00,7.8,-999.0,no,yes,no,300234068541410,SVPVHI,AOML,BJARNI_SAEMUN,North
2021-05-09T15:00:00Z,1620572400,2021,15,0,129.625,129.625,59.754,1.075,-999.00,7.86,-999.0,no,yes,no,300234068541410,SVPVHI,AOML,BJARNI_SAEMUN,North
2021-05-09T18:00:00Z,1620583200,2021,18,0,129.75,129.75,59.773,1.058,-999.00,7.9,-999.0,no,yes,no,300234068541410,SVPVHI,AOML,BJARNI_SAEMUN,North
2021-05-09T21:27:56Z,1620595676,2021,21,28,129.8944,129.8944,59.782,1.049,-999.00,7.92,-999.0,no,yes,no,300234068541410,SVPVHI,AOML,BJARNI_SAEMUN,North
2021-05-10T00:00:00Z,1620604800,2021,0,0,130.0,130.0,59.781,1.037,-999.00,7.87,-999.0,no,yes,no,300234068541410,SVPVHI,AOML,BJARNI_SAEMUN,North
2021-05-10T03:00:00Z,1620615600,2021,3,0,130.125,130.125,59.787,1.011,-999.00,7.9,-999.0,no,yes,no,300234068541410,SVPVHI,AOML,BJARNI_SAEMUN,North
2021-05-10T06:00:00Z,1620626400,2021,6,0,130.25,130.25,59.806,0.992,-999.00,7.89,-999.0,no,yes,no,300234068541410,SVPVHI,AOML,BJARNI_SAEMUN,North
2021-05-10T09:00:00Z,1620637200,2021,9,0,130.375,130.375,59.802,0.972,-999.00,7.94,-999.0,no,yes,no,300234068541410,SVPVHI,AOML,BJARNI_SAEMUN,North
2021-05-10T12:00:00Z,1620648000,2021,12,0,130.5,130.5,59.776,0.927,-999.00,7.97,-999.0,no,yes,no,300234068541410,SVPVHI,AOML,BJARNI_SAEMUN,North
2021-05-10T15:00:00Z,1620658800,2021,15,0,130.625,130.625,59.767,0.866,-999.00,7.97,-999.0,no,yes,no,300234068541410,SVPVHI,AOML,BJARNI_SAEMUN,North
2021-05-10T18:00:00Z,1620669600,2021,18,0,130.75,130.75,59.783,0.817,-999.00,7.88,-999.0,no,yes,no,300234068541410,SVPVHI,AOML,BJARNI_SAEMUN,North
2021-05-10T21:00:00Z,1620680400,2021,21,0,130.875,130.875,59.805,0.834,-999.00,7.96,-999.0,no,yes,no,300234068541410,SVPVHI,AOML,BJARNI_SAEMUN,North
2021-05-11T00:00:00Z,1620691200,2021,0,0,131.0,131.0,59.807,0.875,-999.00,7.93,-999.0,no,yes,no,300234068541410,SVPVHI,AOML,BJARNI_SAEMUN,North
2021-05-11T03:00:00Z,1620702000,2021,3,0,131.125,131.125,59.805,0.898,-999.00,7.96,-999.0,no,yes,no,300234068541410,SVPVHI,AOML,BJARNI_SAEMUN,North
2021-05-11T06:00:00Z,1620712800,2021,6,0,131.25,131.25,59.814,0.906,-999.00,8.0,-999.0,no,yes,no,300234068541410,SVPVHI,AOML,BJARNI_SAEMUN,North
2021-05-11T09:00:00Z,1620723600,2021,9,0,131.375,131.375,59.821,0.913,-999.00,8.12,-999.0,no,yes,no,300234068541410,SVPVHI,AOML,BJARNI_SAEMUN,North
2021-05-11T12:00:00Z,1620734400,2021,12,0,131.5,131.5,59.823,0.924,-999.00,8.25,-999.0,no,yes,no,300234068541410,SVPVHI,AOML,BJARNI_SAEMUN,North
2021-05-11T15:00:00Z,1620745200,2021,15,0,131.625,131.625,59.832,0.93,-999.00,8.32,-999.0,no,yes,no,300234068541410,SVPVHI,AOML,BJARNI_SAEMUN,North
2021-05-11T18:00:00Z,1620756000,2021,18,0,131.75,131.75,59.853,0.935,-999.00,8.33,-999.0,no,yes,no,300234068541410,SVPVHI,AOML,BJARNI_SAEMUN,North
2021-05-11T21:00:00Z,1620766800,2021,21,0,131.875,131.875,59.872,0.937,-999.00,8.29,-999.0,no,yes,no,300234068541410,SVPVHI,AOML,BJARNI_SAEMUN,North
2021-05-12T00:00:00Z,1620777600,2021,0,0,132.0,132.0,59.867,0.933,-999.00,8.2,-999.0,no,yes,no,300234068541410,SVPVHI,AOML,BJARNI_SAEMUN,North
2021-05-12T03:00:00Z,1620788400,2021,3,0,132.125,132.125,59.865,0.907,-999.00,8.14,-999.0,no,yes,no,300234068541410,SVPVHI,AOML,BJARNI_SAEMUN,North
2021-05-12T06:00:00Z,1620799200,2021,6,0,132.25,132.25,59.88,0.882,-999.00,8.18,-999.0,no,yes,no,300234068541410,SVPVHI,AOML,BJARNI_SAEMUN,North
2021-05-12T09:00:00Z,1620810000,2021,9,0,132.375,132.375,59.884,0.868,-999.00,8.28,-999.0,no,yes,no,300234068541410,SVPVHI,AOML,BJARNI_SAEMUN,North
2021-05-12T12:00:00Z,1620820800,2021,12,0,132.5,132.5,59.861,0.841,-999.00,8.23,-999.0,no,yes,no,300234068541410,SVPVHI,AOML,BJARNI_SAEMUN,North
2021-05-12T15:00:00Z,1620831600,2021,15,0,132.625,132.625,59.846,0.8,-999.00,8.05,-999.0,no,yes,no,300234068541410,SVPVHI,AOML,BJARNI_SAEMUN,North
2021-05-12T18:00:00Z,1620842400,2021,18,0,132.75,132.75,59.852,0.773,-999.00,8.12,-999.0,no,yes,no,300234068541410,SVPVHI,AOML,BJARNI_SAEMUN,North
2021-05-12T21:00:00Z,1620853200,2021,21,0,132.875,132.875,59.853,0.774,-999.00,8.11,-999.0,no,yes,no,300234068541410,SVPVHI,AOML,BJARNI_SAEMUN,North
2021-05-13T00:00:00Z,1620864000,2021,0,0,133.0,133.0,59.826,0.771,-999.00,8.12,-999.0,no,yes,no,300234068541410,SVPVHI,AOML,BJARNI_SAEMUN,North
2021-05-13T03:00:00Z,1620874800,2021,3,0,133.125,133.125,59.799,0.742,-999.00,8.09,-999.0,no,yes,no,300234068541410,SVPVHI,AOML,BJARNI_SAEMUN,North
2021-05-13T06:00:00Z,1620885600,2021,6,0,133.25,133.25,59.802,0.714,-999.00,8.05,-999.0,no,yes,no,300234068541410,SVPVHI,AOML,BJARNI_SAEMUN,North
2021-05-13T09:00:00Z,1620896400,2021,9,0,133.375,133.375,59.806,0.721,-999.00,7.99,-999.0,no,yes,no,300234068541410,SVPVHI,AOML,BJARNI_SAEMUN,North
2021-05-13T12:00:00Z,1620907200,2021,12,0,133.5,133.5,59.783,0.737,-999.00,8.09,-999.0,no,yes,no,300234068541410,SVPVHI,AOML,BJARNI_SAEMUN,North
2021-05-13T15:00:00Z,1620918000,2021,15,0,133.625,133.625,59.75,0.718,-999.00,8.11,-999.0,no,yes,no,300234068541410,SVPVHI,AOML,BJARNI_SAEMUN,North
2021-05-13T18:00:00Z,1620928800,2021,18,0,133.75,133.75,59.744,0.679,-999.00,7.99,-999.0,no,yes,no,300234068541410,SVPVHI,AOML,BJARNI_SAEMUN,North
2021-05-13T21:00:00Z,1620939600,2021,21,0,133.875,133.875,59.743,0.67,-999.00,7.81,-999.0,no,yes,no,300234068541410,SVPVHI,AOML,BJARNI_SAEMUN,North
2021-05-14T00:00:00Z,1620950400,2021,0,0,134.0,134.0,59.714,0.673,-999.00,7.77,-999.0,no,yes,no,300234068541410,SVPVHI,AOML,BJARNI_SAEMUN,North
2021-05-14T03:00:00Z,1620961200,2021,3,0,134.125,134.125,59.675,0.649,-999.00,7.77,-999.0,no,yes,no,300234068541410,SVPVHI,AOML,BJARNI_SAEMUN,North
2021-05-14T06:00:00Z,1620972000,2021,6,0,134.25,134.25,59.662,0.613,-999.00,7.73,-999.0,no,yes,no,300234068541410,SVPVHI,AOML,BJARNI_SAEMUN,North
2021-05-14T09:00:00Z,1620982800,2021,9,0,134.375,134.375,59.661,0.6,-999.00,7.73,-999.0,no,yes,no,300234068541410,SVPVHI,AOML,BJARNI_SAEMUN,North
2021-05-14T12:00:00Z,1620993600,2021,12,0,134.5,134.5,59.637,0.609,-999.00,7.72,-999.0,no,yes,no,300234068541410,SVPVHI,AOML,BJARNI_SAEMUN,North
2021-05-14T15:00:00Z,1621004400,2021,15,0,134.625,134.625,59.601,0.611,-999.00,7.71,-999.0,no,yes,no,300234068541410,SVPVHI,AOML,BJARNI_SAEMUN,North
2021-05-14T18:00:00Z,1621015200,2021,18,0,134.75,134.75,59.584,0.603,-999.00,7.68,-999.0,no,yes,no,300234068541410,SVPVHI,AOML,BJARNI_SAEMUN,North
2021-05-14T21:00:00Z,1621026000,2021,21,0,134.875,134.875,59.581,0.593,-999.00,7.72,-999.0,no,yes,no,300234068541410,SVPVHI,AOML,BJARNI_SAEMUN,North
2021-05-15T00:00:00Z,1621036800,2021,0,0,135.0,135.0,59.566,0.601,-999.00,7.72,-999.0,no,yes,no,300234068541410,SVPVHI,AOML,BJARNI_SAEMUN,North
2021-05-15T03:00:00Z,1621047600,2021,3,0,135.125,135.125,59.543,0.605,-999.00,7.68,-999.0,no,yes,no,300234068541410,SVPVHI,AOML,BJARNI_SAEMUN,North
2021-05-15T06:00:00Z,1621058400,2021,6,0,135.25,135.25,59.537,0.602,-999.00,7.68,-999.0,no,yes,no,300234068541410,SVPVHI,AOML,BJARNI_SAEMUN,North
2021-05-15T09:00:00Z,1621069200,2021,9,0,135.375,135.375,59.544,0.606,-999.00,7.69,-999.0,no,yes,no,300234068541410,SVPVHI,AOML,BJARNI_SAEMUN,North
2021-05-15T12:00:00Z,1621080000,2021,12,0,135.5,135.5,59.537,0.62,-999.00,7.75,-999.0,no,yes,no,300234068541410,SVPVHI,AOML,BJARNI_SAEMUN,North
2021-05-15T15:00:00Z,1621090800,2021,15,0,135.625,135.625,59.52,0.624,-999.00,7.84,-999.0,no,yes,no,300234068541410,SVPVHI,AOML,BJARNI_SAEMUN,North
2021-05-15T18:00:00Z,1621101600,2021,18,0,135.75,135.75,59.525,0.625,-999.00,7.84,-999.0,no,yes,no,300234068541410,SVPVHI,AOML,BJARNI_SAEMUN,North
2021-05-15T21:00:00Z,1621112400,2021,21,0,135.875,135.875,59.54,0.652,-999.00,7.82,-999.0,no,yes,no,300234068541410,SVPVHI,AOML,BJARNI_SAEMUN,North
2021-05-16T00:00:00Z,1621123200,2021,0,0,136.0,136.0,59.536,0.686,-999.00,7.81,-999.0,no,yes,no,300234068541410,SVPVHI,AOML,BJARNI_SAEMUN,North
2021-05-16T03:00:00Z,1621134000,2021,3,0,136.125,136.125,59.527,0.7,-999.00,7.82,-999.0,no,yes,no,300234068541410,SVPVHI,AOML,BJARNI_SAEMUN,North
2021-05-16T06:00:00Z,1621144800,2021,6,0,136.25,136.25,59.535,0.717,-999.00,7.79,-999.0,no,yes,no,300234068541410,SVPVHI,AOML,BJARNI_SAEMUN,North
2021-05-16T09:00:00Z,1621155600,2021,9,0,136.375,136.375,59.559,0.74,-999.00,7.85,-999.0,no,yes,no,300234068541410,SVPVHI,AOML,BJARNI_SAEMUN,North
2021-05-16T12:00:00Z,1621166400,2021,12,0,136.5,136.5,59.569,0.771,-999.00,8.04,-999.0,no,yes,no,300234068541410,SVPVHI,AOML,BJARNI_SAEMUN,North
2021-05-16T15:00:00Z,1621177200,2021,15,0,136.625,136.625,59.563,0.784,-999.00,8.26,-999.0,no,yes,no,300234068541410,SVPVHI,AOML,BJARNI_SAEMUN,North
2021-05-16T18:00:00Z,1621188000,2021,18,0,136.75,136.75,59.566,0.782,-999.00,8.25,-999.0,no,yes,no,300234068541410,SVPVHI,AOML,BJARNI_SAEMUN,North
2021-05-16T21:00:00Z,1621198800,2021,21,0,136.875,136.875,59.586,0.779,-999.00,8.27,-999.0,no,yes,no,300234068541410,SVPVHI,AOML,BJARNI_SAEMUN,North
2021-05-17T00:00:00Z,1621209600,2021,0,0,137.0,137.0,59.595,0.786,-999.00,8.25,-999.0,no,yes,no,300234068541410,SVPVHI,AOML,BJARNI_SAEMUN,North
2021-05-17T03:00:00Z,1621220400,2021,3,0,137.125,137.125,59.587,0.79,-999.00,8.2,-999.0,no,yes,no,300234068541410,SVPVHI,AOML,BJARNI_SAEMUN,North
2021-05-17T06:00:00Z,1621231200,2021,6,0,137.25,137.25,59.582,0.781,-999.00,8.19,-999.0,no,yes,no,300234068541410,SVPVHI,AOML,BJARNI_SAEMUN,North
2021-05-17T09:00:00Z,1621242000,2021,9,0,137.375,137.375,59.594,0.771,-999.00,8.45,-999.0,no,yes,no,300234068541410,SVPVHI,AOML,BJARNI_SAEMUN,North
2021-05-17T12:00:00Z,1621252800,2021,12,0,137.5,137.5,59.606,0.782,-999.00,8.88,-999.0,no,yes,no,300234068541410,SVPVHI,AOML,BJARNI_SAEMUN,North
2021-05-17T15:00:00Z,1621263600,2021,15,0,137.625,137.625,59.597,0.812,-999.00,9.22,-999.0,no,yes,no,300234068541410,SVPVHI,AOML,BJARNI_SAEMUN,North
2021-05-17T18:00:00Z,1621274400,2021,18,0,137.75,137.75,59.574,0.832,-999.00,8.83,-999.0,no,yes,no,300234068541410,SVPVHI,AOML,BJARNI_SAEMUN,North
2021-05-17T21:00:00Z,1621285200,2021,21,0,137.875,137.875,59.572,0.836,-999.00,8.66,-999.0,no,yes,no,300234068541410,SVPVHI,AOML,BJARNI_SAEMUN,North
2021-05-18T00:00:00Z,1621296000,2021,0,0,138.0,138.0,59.58,0.852,-999.00,8.61,-999.0,no,yes,no,300234068541410,SVPVHI,AOML,BJARNI_SAEMUN,North
2021-05-18T03:00:00Z,1621306800,2021,3,0,138.125,138.125,59.573,0.89,-999.00,8.49,-999.0,no,yes,no,300234068541410,SVPVHI,AOML,BJARNI_SAEMUN,North
2021-05-18T06:00:00Z,1621317600,2021,6,0,138.25,138.25,59.56,0.919,-999.00,8.47,-999.0,no,yes,no,300234068541410,SVPVHI,AOML,BJARNI_SAEMUN,North
2021-05-18T09:00:00Z,1621328400,2021,9,0,138.375,138.375,59.562,0.929,-999.00,8.44,-999.0,no,yes,no,300234068541410,SVPVHI,AOML,BJARNI_SAEMUN,North
2021-05-18T12:00:00Z,1621339200,2021,12,0,138.5,138.5,59.576,0.945,-999.00,8.52,-999.0,no,yes,no,300234068541410,SVPVHI,AOML,BJARNI_SAEMUN,North
2021-05-18T15:00:00Z,1621350000,2021,15,0,138.625,138.625,59.573,0.98,-999.00,8.6,-999.0,no,yes,no,300234068541410,SVPVHI,AOML,BJARNI_SAEMUN,North
2021-05-18T18:00:00Z,1621360800,2021,18,0,138.75,138.75,59.548,0.992,-999.00,8.54,-999.0,no,yes,no,300234068541410,SVPVHI,AOML,BJARNI_SAEMUN,North
2021-05-18T21:00:00Z,1621371600,2021,21,0,138.875,138.875,59.534,0.979,-999.00,8.52,-999.0,no,yes,no,300234068541410,SVPVHI,AOML,BJARNI_SAEMUN,North
2021-05-19T00:00:00Z,1621382400,2021,0,0,139.0,139.0,59.534,0.972,-999.00,8.5,-999.0,no,yes,no,300234068541410,SVPVHI,AOML,BJARNI_SAEMUN,North
2021-05-19T03:00:00Z,1621393200,2021,3,0,139.125,139.125,59.525,0.997,-999.00,8.46,-999.0,no,yes,no,300234068541410,SVPVHI,AOML,BJARNI_SAEMUN,North
2021-05-19T06:00:00Z,1621404000,2021,6,0,139.25,139.25,59.495,1.019,-999.00,8.34,-999.0,no,yes,no,300234068541410,SVPVHI,AOML,BJARNI_SAEMUN,North
2021-05-19T09:00:00Z,1621414800,2021,9,0,139.375,139.375,59.469,1.012,-999.00,8.37,-999.0,no,yes,no,300234068541410,SVPVHI,AOML,BJARNI_SAEMUN,North
2021-05-19T12:00:00Z,1621425600,2021,12,0,139.5,139.5,59.464,0.995,-999.00,8.49,-999.0,no,yes,no,300234068541410,SVPVHI,AOML,BJARNI_SAEMUN,North
2021-05-19T15:00:00Z,1621436400,2021,15,0,139.625,139.625,59.463,1.011,-999.00,8.71,-999.0,no,yes,no,300234068541410,SVPVHI,AOML,BJARNI_SAEMUN,North
2021-05-19T18:00:00Z,1621447200,2021,18,0,139.75,139.75,59.441,1.032,-999.00,8.69,-999.0,no,yes,no,300234068541410,SVPVHI,AOML,BJARNI_SAEMUN,North
2021-05-19T21:00:00Z,1621458000,2021,21,0,139.875,139.875,59.41,1.027,-999.00,8.75,-999.0,no,yes,no,300234068541410,SVPVHI,AOML,BJARNI_SAEMUN,North
2021-05-20T00:00:00Z,1621468800,2021,0,0,140.0,140.0,59.394,1.003,-999.00,8.62,-999.0,no,yes,no,300234068541410,SVPVHI,AOML,BJARNI_SAEMUN,North
2021-05-20T03:00:00Z,1621479600,2021,3,0,140.125,140.125,59.386,1.001,-999.00,8.51,-999.0,no,yes,no,300234068541410,SVPVHI,AOML,BJARNI_SAEMUN,North
2021-05-20T06:00:00Z,1621490400,2021,6,0,140.25,140.25,59.37,1.021,-999.00,8.57,-999.0,no,yes,no,300234068541410,SVPVHI,AOML,BJARNI_SAEMUN,North
2021-05-20T09:00:00Z,1621501200,2021,9,0,140.375,140.375,59.359,1.048,-999.00,8.64,-999.0,no,yes,no,300234068541410,SVPVHI,AOML,BJARNI_SAEMUN,North
2021-05-20T12:00:00Z,1621512000,2021,12,0,140.5,140.5,59.354,1.059,-999.00,8.85,-999.0,no,yes,no,300234068541410,SVPVHI,AOML,BJARNI_SAEMUN,North
2021-05-20T15:00:00Z,1621522800,2021,15,0,140.625,140.625,59.361,1.028,-999.00,8.98,-999.0,no,yes,no,300234068541410,SVPVHI,AOML,BJARNI_SAEMUN,North
2021-05-20T18:00:00Z,1621533600,2021,18,0,140.75,140.75,59.37,1.003,-999.00,8.86,-999.0,no,yes,no,300234068541410,SVPVHI,AOML,BJARNI_SAEMUN,North
2021-05-20T21:00:00Z,1621544400,2021,21,0,140.875,140.875,59.368,0.988,-999.00,8.69,-999.0,no,yes,no,300234068541410,SVPVHI,AOML,BJARNI_SAEMUN,North
2021-05-21T00:00:00Z,1621555200,2021,0,0,141.0,141.0,59.366,0.959,-999.00,8.63,-999.0,no,yes,no,300234068541410,SVPVHI,AOML,BJARNI_SAEMUN,North
2021-05-21T03:00:00Z,1621566000,2021,3,0,141.125,141.125,59.366,0.908,-999.00,8.42,-999.0,no,yes,no,300234068541410,SVPVHI,AOML,BJARNI_SAEMUN,North
2021-05-21T06:00:00Z,1621576800,2021,6,0,141.25,141.25,59.363,0.861,-999.00,8.33,-999.0,no,yes,no,300234068541410,SVPVHI,AOML,BJARNI_SAEMUN,North
2021-05-21T09:00:00Z,1621587600,2021,9,0,141.375,141.375,59.349,0.816,-999.00,8.28,-999.0,no,yes,no,300234068541410,SVPVHI,AOML,BJARNI_SAEMUN,North
2021-05-21T12:00:00Z,1621598400,2021,12,0,141.5,141.5,59.34,0.775,-999.00,8.31,-999.0,no,yes,no,300234068541410,SVPVHI,AOML,BJARNI_SAEMUN,North
2021-05-21T15:00:00Z,1621609200,2021,15,0,141.625,141.625,59.33,0.732,-999.00,8.28,-999.0,no,yes,no,300234068541410,SVPVHI,AOML,BJARNI_SAEMUN,North
2021-05-21T18:00:00Z,1621620000,2021,18,0,141.75,141.75,59.311,0.687,-999.00,8.36,-999.0,no,yes,no,300234068541410,SVPVHI,AOML,BJARNI_SAEMUN,North
2021-05-21T21:00:00Z,1621630800,2021,21,0,141.875,141.875,59.285,0.646,-999.00,8.3,-999.0,no,yes,no,300234068541410,SVPVHI,AOML,BJARNI_SAEMUN,North
2021-05-22T00:00:00Z,1621641600,2021,0,0,142.0,142.0,59.263,0.616,-999.00,8.32,-999.0,no,yes,no,300234068541410,SVPVHI,AOML,BJARNI_SAEMUN,North
2021-05-22T03:00:00Z,1621652400,2021,3,0,142.125,142.125,59.245,0.595,-999.00,8.33,-999.0,no,yes,no,300234068541410,SVPVHI,AOML,BJARNI_SAEMUN,North
2021-05-22T06:00:00Z,1621663200,2021,6,0,142.25,142.25,59.213,0.58,-999.00,8.29,-999.0,no,yes,no,300234068541410,SVPVHI,AOML,BJARNI_SAEMUN,North
2021-05-22T09:00:00Z,1621674000,2021,9,0,142.375,142.375,59.169,0.567,-999.00,8.2,-999.0,no,yes,no,300234068541410,SVPVHI,AOML,BJARNI_SAEMUN,North
2021-05-22T12:00:00Z,1621684800,2021,12,0,142.5,142.5,59.143,0.541,-999.00,8.18,-999.0,no,yes,no,300234068541410,SVPVHI,AOML,BJARNI_SAEMUN,North
2021-05-22T15:00:00Z,1621695600,2021,15,0,142.625,142.625,59.139,0.529,-999.00,8.18,-999.0,no,yes,no,300234068541410,SVPVHI,AOML,BJARNI_SAEMUN,North
2021-05-22T18:00:00Z,1621706400,2021,18,0,142.75,142.75,59.117,0.543,-999.00,8.28,-999.0,no,yes,no,300234068541410,SVPVHI,AOML,BJARNI_SAEMUN,North
2021-05-22T21:00:00Z,1621717200,2021,21,0,142.875,142.875,59.066,0.544,-999.00,8.23,-999.0,no,yes,no,300234068541410,SVPVHI,AOML,BJARNI_SAEMUN,North
2021-05-23T00:00:00Z,1621728000,2021,0,0,143.0,143.0,59.029,0.52,-999.00,8.24,-999.0,no,yes,no,300234068541410,SVPVHI,AOML,BJARNI_SAEMUN,North
2021-05-23T03:00:00Z,1621738800,2021,3,0,143.125,143.125,59.025,0.518,-999.00,8.26,-999.0,no,yes,no,300234068541410,SVPVHI,AOML,BJARNI_SAEMUN,North